GW5804 Weather Reports


time (UTC)temp
C
wind
direction
speed
KPH
gust
KPH
rain 1hr
cm
rain 24hr
cm
rain mn
cm
humidity
%
barometer
mb
20260507162608 17 175 6.4 6.4 0.00 1.09 1.09 83 1013.5
20260507162105 17 221 1.6 3.2 0.00 1.09 1.09 83 1013.8
20260507161601 17 225 6.4 9.7 0.00 1.09 1.09 82 1013.6
20260507161057 17 100 6.4 6.4 0.00 1.09 1.09 82 1013.5
20260507160554 17 155 8.0 14.5 0.00 1.09 1.09 82 1013.5
20260507160050 17 160 1.6 3.2 0.00 1.09 1.09 82 1013.7
20260507155546 18 171 9.7 14.5 0.00 1.09 1.09 81 1013.7
20260507155043 17 195 6.4 9.7 0.00 1.09 1.09 81 1013.8
20260507154540 18 130 4.8 6.4 0.00 1.09 1.09 81 1013.6
20260507154037 17 228 3.2 4.8 0.00 1.09 1.09 81 1013.8
20260507153534 18 193 3.2 4.8 0.00 1.09 1.09 81 1013.8
20260507153030 18 172 3.2 4.8 0.00 1.09 1.09 80 1013.6
20260507152526 17 134 1.6 1.6 0.00 1.09 1.09 81 1013.6
20260507152022 18 168 4.8 11.3 0.00 1.09 1.09 80 1013.5
20260507151519 19 109 4.8 4.8 0.00 1.09 1.09 77 1013.5
20260507151016 19 82 3.2 3.2 0.00 1.09 1.09 77 1013.6
20260507150513 18 350 0.0 0.0 0.00 1.09 1.09 77 1013.6
20260507150009 19 305 1.6 3.2 0.00 1.09 1.09 77 1013.7
20260507145504 19 133 6.4 9.7 0.00 1.09 1.09 75 1013.8
20260507145002 18 102 1.6 1.6 0.00 1.09 1.09 77 1013.7
20260507144459 18 177 1.6 1.6 0.00 1.09 1.09 77 1013.8
20260507143955 18 117 8.0 9.7 0.00 1.09 1.09 77 1013.7
20260507143453 19 127 6.4 6.4 0.00 1.09 1.09 76 1013.8
20260507142950 19 217 3.2 4.8 0.00 1.09 1.09 75 1013.7
20260507142445 18 214 1.6 1.6 0.00 1.09 1.09 78 1013.7
20260507141943 19 50 3.2 4.8 0.00 1.09 1.09 76 1013.5
20260507141438 18 231 6.4 9.7 0.00 1.09 1.09 77 1013.7
20260507140936 18 245 3.2 3.2 0.00 1.09 1.09 77 1013.6
20260507140432 19 217 3.2 4.8 0.00 1.09 1.09 77 1013.6
20260507135930 20 153 4.8 6.4 0.00 1.09 1.09 74 1013.7
20260507135427 20 281 1.6 3.2 0.00 1.09 1.09 75 1013.8
20260507134924 20 307 0.0 0.0 0.00 1.09 1.09 76 1013.5
20260507134420 19 293 0.0 1.6 0.00 1.09 1.09 77 1013.7
20260507133916 18 268 0.0 1.6 0.00 1.09 1.09 78 1013.7
20260507133412 18 289 3.2 4.8 0.00 1.09 1.09 79 1013.8
20260507132911 17 240 3.2 4.8 0.00 1.09 1.09 80 1013.8
20260507132407 17 152 4.8 4.8 0.00 1.09 1.09 82 1013.8
20260507131905 17 132 9.7 11.3 0.00 1.09 1.09 82 1013.9
20260507131401 17 108 6.4 6.4 0.00 1.09 1.09 82 1013.8
20260507130858 17 139 1.6 1.6 0.00 1.09 1.09 82 1013.9
20260507130354 17 171 4.8 6.4 0.00 1.09 1.09 82 1014.0
20260507125853 17 114 8.0 11.3 0.00 1.09 1.09 81 1013.9
20260507125350 17 84 8.0 11.3 0.00 1.09 1.09 80 1013.9
20260507124848 17 174 6.4 6.4 0.00 1.09 1.09 79 1013.9
20260507124343 17 99 9.7 12.9 0.00 1.09 1.09 80 1014.0
20260507123843 17 175 6.4 11.3 0.00 1.09 1.09 80 1013.9
20260507123339 17 296 4.8 6.4 0.00 1.09 1.09 82 1013.7
20260507122836 16 191 3.2 4.8 0.00 1.09 1.09 83 1013.9
20260507122331 17 207 6.4 6.4 0.00 1.09 1.09 83 1014.0
20260507121828 17 158 6.4 11.3 0.00 1.09 1.09 82 1013.9
20260507121323 17 166 6.4 9.7 0.00 1.09 1.09 81 1013.8
20260507120820 17 182 6.4 11.3 0.00 1.09 1.09 81 1013.8
20260507120316 17 165 9.7 12.9 0.00 1.09 1.09 81 1014.0
20260507115813 17 106 9.7 12.9 0.00 1.09 1.09 81 1013.9
20260507115308 16 146 6.4 11.3 0.00 1.09 1.09 83 1014.1
20260507114804 16 148 6.4 11.3 0.00 1.09 1.09 85 1014.0
20260507114302 16 123 6.4 9.7 0.00 1.09 1.09 85 1014.0
20260507113759 16 150 8.0 12.9 0.00 1.09 1.09 86 1014.1
20260507113256 16 101 4.8 6.4 0.00 1.09 1.09 86 1013.8
20260507112754 17 139 9.7 12.9 0.00 1.09 1.09 84 1013.9
20260507112250 17 147 8.0 12.9 0.00 1.09 1.09 83 1014.0
20260507111748 17 150 12.9 20.9 0.00 1.09 1.09 83 1013.9
20260507111244 17 95 6.4 11.3 0.00 1.09 1.09 84 1013.9
20260507110741 16 164 12.9 17.7 0.00 1.09 1.09 85 1014.0
20260507110237 16 256 3.2 4.8 0.00 1.09 1.09 85 1013.9
20260507105734 16 135 14.5 20.9 0.00 1.09 1.09 86 1014.3
20260507105230 16 149 8.0 14.5 0.00 1.09 1.09 86 1014.0
20260507104727 16 133 9.7 14.5 0.00 1.09 1.09 86 1014.0
20260507104224 16 203 9.7 12.9 0.00 1.09 1.09 85 1014.0
20260507103720 16 127 6.4 9.7 0.00 1.09 1.09 86 1014.2
20260507103216 16 129 11.3 12.9 0.00 1.09 1.09 86 1014.1
20260507102713 16 141 9.7 16.1 0.00 1.09 1.09 87 1013.9
20260507102210 16 140 8.0 14.5 0.00 1.09 1.09 88 1014.0
20260507101706 15 175 6.4 11.3 0.00 1.09 1.09 89 1014.0
20260507101201 15 193 9.7 16.1 0.00 1.09 1.09 89 1014.0
20260507100659 15 202 9.7 12.9 0.00 1.09 1.09 89 1014.0
20260507100157 15 148 11.3 14.5 0.00 1.09 1.09 90 1014.0
20260507095655 15 152 3.2 3.2 0.00 1.09 1.09 90 1014.0
20260507095151 15 152 6.4 9.7 0.00 1.09 1.09 91 1013.8
20260507094647 15 129 8.0 17.7 0.00 1.09 1.09 91 1014.0
20260507094144 15 125 9.7 12.9 0.00 1.09 1.09 92 1013.9
20260507093642 15 142 8.0 11.3 0.00 1.09 1.09 93 1013.8
20260507093141 14 158 6.4 6.4 0.00 1.09 1.09 93 1013.9
20260507092637 14 161 9.7 14.5 0.00 1.09 1.09 94 1013.7
20260507092133 14 155 6.4 9.7 0.00 1.09 1.09 94 1013.8
20260507091630 14 189 4.8 6.4 0.00 1.09 1.09 95 1013.8
20260507091126 14 158 9.7 14.5 0.00 1.09 1.09 95 1013.8
20260507090622 14 108 8.0 12.9 0.00 1.09 1.09 95 1013.7
20260507090119 14 188 8.0 11.3 0.00 1.09 1.09 96 1013.6
20260507085616 14 106 8.0 12.9 0.00 1.09 1.09 96 1013.8
20260507085112 14 106 6.4 6.4 0.00 1.09 1.09 96 1013.7
20260507084609 14 140 3.2 3.2 0.00 1.09 1.09 96 1013.5
20260507084106 14 163 9.7 12.9 0.00 1.09 1.09 96 1013.7
20260507083603 13 212 3.2 6.4 0.00 1.09 1.09 97 1013.7
20260507083100 13 132 8.0 11.3 0.00 1.09 1.09 97 1013.6
20260507082555 13 110 14.5 22.5 0.00 1.09 1.09 97 1013.6
20260507082052 14 165 12.9 17.7 0.00 1.09 1.09 97 1013.6
20260507081548 14 149 9.7 20.9 0.00 1.09 1.09 97 1013.6
20260507081046 14 131 3.2 6.4 0.00 1.09 1.09 97 1013.7
20260507080541 14 80 8.0 12.9 0.00 1.09 1.09 97 1013.6
20260507080038 14 187 8.0 12.9 0.00 1.09 1.09 97 1013.6
20260507075533 14 181 4.8 6.4 0.00 1.09 1.09 97 1013.7
20260507075030 13 159 6.4 9.7 0.00 1.09 1.09 97 1013.5
20260507074526 13 167 3.2 6.4 0.00 1.09 1.09 97 1013.5
20260507074025 13 191 3.2 4.8 0.00 1.09 1.09 97 1013.4
20260507073521 13 160 9.7 11.3 0.00 1.09 1.09 97 1013.3
20260507073018 13 201 14.5 20.9 0.00 1.09 1.09 97 1013.4
20260507072515 13 164 8.0 11.3 0.00 1.09 1.09 97 1013.4
20260507072012 13 195 9.7 12.9 0.00 1.09 1.09 97 1013.3
20260507071509 13 148 9.7 12.9 0.00 1.09 1.09 97 1013.3
20260507071006 13 191 16.1 17.7 0.00 1.09 1.09 97 1013.2
20260507070503 13 135 6.4 9.7 0.00 1.09 1.09 97 1013.1
20260507070000 13 163 3.2 11.3 0.00 1.09 1.09 97 1013.1
20260507065456 13 107 12.9 22.5 0.00 1.09 1.09 97 1012.8
20260507064954 13 176 4.8 6.4 0.00 1.09 1.09 97 1012.9
20260507064452 13 166 6.4 11.3 0.00 1.09 1.09 97 1012.9
20260507063949 13 96 14.5 20.9 0.00 1.09 1.09 97 1012.8
20260507063446 13 132 3.2 6.4 0.00 1.09 1.09 97 1012.9
20260507062943 13 115 4.8 4.8 0.00 1.09 1.09 97 1012.8
20260507062441 13 223 8.0 11.3 0.00 1.09 1.09 97 1012.9
20260507061938 13 141 1.6 3.2 0.00 1.09 1.09 97 1012.8
20260507061436 13 172 6.4 11.3 0.00 1.09 1.09 97 1012.9
20260507060934 13 186 11.3 16.1 0.00 1.09 1.09 97 1012.8
20260507060430 13 123 6.4 11.3 0.00 1.09 1.09 97 1012.7
20260507055927 13 142 6.4 9.7 0.18 1.09 1.09 97 1012.6
20260507055422 13 70 6.4 11.3 0.18 1.09 1.09 97 1012.7
20260507054920 13 156 6.4 11.3 0.00 1.07 1.07 97 1012.6
20260507054415 13 155 4.8 4.8 0.18 1.07 1.07 97 1012.8
20260507053913 13 140 4.8 6.4 0.18 1.07 1.07 97 1012.7
20260507053410 13 106 8.0 9.7 0.00 1.04 1.04 97 1012.5
20260507052909 13 186 8.0 11.3 0.00 1.04 1.04 97 1012.5
20260507052406 13 130 4.8 6.4 0.00 1.04 1.04 97 1012.6
20260507051903 13 118 6.4 9.7 0.00 1.04 1.04 97 1012.7
20260507051401 13 78 4.8 6.4 0.00 1.04 1.04 97 1012.5
20260507050857 13 148 1.6 3.2 0.00 1.04 1.04 97 1012.4
20260507050354 13 305 0.0 0.0 0.00 1.04 1.04 97 1012.4
20260507045851 13 85 0.0 0.0 0.13 1.04 1.04 97 1012.4
20260507045347 13 22 0.0 0.0 0.13 1.04 1.04 97 1012.4
20260507044845 13 88 1.6 1.6 0.79 1.02 1.02 97 1012.5
20260507044341 13 144 4.8 4.8 0.79 1.02 1.02 97 1012.3
20260507043837 13 87 3.2 4.8 0.30 0.91 0.91 97 1012.3
20260507043334 13 121 3.2 4.8 0.30 0.89 0.89 97 1012.2
20260507042830 13 128 6.4 11.3 0.18 0.86 0.86 96 1011.8
20260507042326 13 146 6.4 11.3 0.13 0.84 0.84 96 1012.1
20260507041823 13 192 4.8 6.4 0.30 0.84 0.84 96 1011.9
20260507041319 13 170 3.2 6.4 0.18 0.81 0.81 96 1011.9
20260507040816 13 89 9.7 12.9 0.30 0.79 0.79 96 1011.9
20260507040312 13 140 9.7 12.9 0.30 0.79 0.79 96 1011.9
20260507035808 13 114 8.0 14.5 0.00 0.74 0.74 96 1011.7
20260507035306 13 130 8.0 11.3 0.18 0.74 0.74 96 1011.8
20260507034802 13 175 6.4 11.3 0.18 0.74 0.74 96 1011.7
20260507034258 13 172 9.7 12.9 0.13 0.71 0.71 96 1011.9
20260507033757 13 173 3.2 4.8 0.13 0.71 0.71 95 1011.9
20260507033254 13 155 6.4 9.7 0.00 0.69 0.69 95 1011.8
20260507032751 13 220 6.4 11.3 0.00 0.69 0.69 95 1011.9
20260507032247 14 175 0.0 1.6 0.00 0.69 0.69 95 1012.1
20260507031743 14 183 1.6 3.2 0.18 0.69 0.69 94 1012.1
20260507031241 14 136 3.2 4.8 1.55 0.69 0.69 94 1012.1
20260507030737 14 177 1.6 1.6 2.46 0.69 0.69 94 1012.1
20260507030235 14 211 0.0 1.6 2.46 0.48 0.48 93 1012.2
20260507025732 14 322 3.2 9.7 1.55 0.25 0.25 92 1012.1
20260507025229 14 268 4.8 6.4 0.48 0.08 0.08 91 1011.9
20260507024727 14 290 1.6 3.2 0.00 0.00 0.00 91 1011.9
20260507024224 14 295 0.0 0.0 0.00 0.00 0.00 91 1011.9
20260507023720 14 266 0.0 0.0 0.00 0.00 0.00 91 1011.8
20260507023217 14 237 1.6 3.2 0.00 0.00 0.00 91 1011.5
20260507022714 14 85 3.2 4.8 0.00 0.00 0.00 90 1011.5
20260507022210 14 279 0.0 0.0 0.00 0.00 0.00 90 1011.5
20260507021706 14 185 3.2 3.2 0.00 0.00 0.00 90 1011.7
20260507021201 15 165 3.2 4.8 0.00 0.00 0.00 89 1011.6
20260507020701 15 130 3.2 4.8 0.00 0.00 0.00 89 1011.7
20260507020156 15 129 8.0 11.3 0.00 0.00 0.00 88 1011.6
20260507015654 15 168 4.8 6.4 0.00 0.00 0.00 87 1011.5
20260507015151 15 200 6.4 11.3 0.00 0.00 0.00 86 1011.8
20260507014648 15 170 4.8 6.4 0.00 0.00 0.00 86 1011.8
20260507014144 15 185 3.2 3.2 0.00 0.00 0.00 85 1011.7
20260507013641 15 218 9.7 16.1 0.00 0.00 0.00 84 1011.7
20260507013138 15 159 1.6 3.2 0.00 0.00 0.00 84 1011.7
20260507012636 15 151 6.4 9.7 0.00 0.00 0.00 83 1011.7
20260507012130 15 167 3.2 4.8 0.00 0.00 0.00 83 1011.4
20260507011629 15 206 8.0 12.9 0.00 0.00 0.00 82 1011.4
20260507011125 15 142 3.2 4.8 0.00 0.00 0.00 82 1011.5
20260507010620 15 142 3.2 4.8 0.00 0.00 0.00 82 1011.5
20260507010116 15 177 8.0 11.3 0.00 0.00 0.00 81 1011.4
20260507005614 15 231 3.2 4.8 0.00 0.00 0.00 80 1011.4
20260507005109 15 163 6.4 9.7 0.00 0.00 0.00 81 1011.6
20260507004607 15 219 6.4 9.7 0.00 0.00 0.00 80 1011.4
20260507004104 15 220 3.2 6.4 0.00 0.00 0.00 80 1011.6
20260507003600 15 148 8.0 12.9 0.00 0.00 0.00 80 1011.6
20260507003055 15 194 4.8 9.7 0.00 0.00 0.00 79 1011.8
20260507002552 15 210 6.4 9.7 0.00 0.00 0.00 78 1011.7
20260507002048 15 235 9.7 16.1 0.00 0.00 0.00 78 1011.7
20260507001544 15 213 4.8 6.4 0.00 0.00 0.00 77 1011.8
20260507001042 15 198 6.4 9.7 0.00 0.00 0.00 77 1011.8
20260507000538 15 223 8.0 11.3 0.00 0.00 0.00 78 1011.8
20260507000033 15 223 9.7 11.3 0.00 0.00 0.00 78 1011.7
20260506235531 15 224 6.4 9.7 0.00 0.00 0.00 79 1011.8
20260506235027 15 170 9.7 12.9 0.00 0.00 0.00 79 1011.7
20260506234525 15 193 4.8 11.3 0.00 0.00 0.00 79 1012.2
20260506234022 15 165 14.5 17.7 0.00 0.00 0.00 79 1012.1
20260506233518 15 152 16.1 22.5 0.00 0.00 0.00 78 1012.1
20260506233015 15 134 14.5 22.5 0.00 0.00 0.00 78 1011.9
20260506232511 15 84 12.9 16.1 0.00 0.00 0.00 79 1012.3
20260506232007 15 139 6.4 6.4 0.00 0.00 0.00 79 1012.5
20260506231505 15 209 6.4 11.3 0.00 0.00 0.00 79 1012.2
20260506231002 15 194 9.7 14.5 0.00 0.00 0.00 79 1012.2
20260506230458 15 200 12.9 16.1 0.00 0.00 0.00 79 1012.2
20260506225955 15 171 8.0 17.7 0.00 0.99 0.99 78 1012.1
20260506225452 15 155 8.0 14.5 0.00 0.99 0.99 78 1012.2
20260506224949 15 226 4.8 11.3 0.00 0.99 0.99 78 1012.1
20260506224446 15 65 8.0 11.3 0.00 0.99 0.99 79 1012.2
20260506223942 15 155 8.0 16.1 0.00 0.99 0.99 80 1012.1
20260506223438 15 110 6.4 9.7 0.00 0.99 0.99 80 1012.3
20260506222936 15 187 16.1 20.9 0.00 0.99 0.99 79 1012.1
20260506222432 15 163 12.9 14.5 0.00 0.99 0.99 79 1012.2
20260506221929 15 170 9.7 14.5 0.00 0.99 0.99 79 1012.2
20260506221426 15 151 8.0 11.3 0.00 0.99 0.99 78 1012.2
20260506220924 15 111 8.0 11.3 0.00 0.99 0.99 78 1012.1
20260506220419 15 149 4.8 6.4 0.00 0.99 0.99 78 1012.1
20260506215916 15 150 8.0 12.9 0.00 0.99 0.99 78 1011.9
20260506215412 15 138 9.7 16.1 0.00 0.99 0.99 77 1011.9
20260506214908 15 179 12.9 20.9 0.00 0.99 0.99 76 1011.9
20260506214405 15 180 9.7 17.7 0.00 0.99 0.99 78 1012.1
20260506213903 15 158 8.0 14.5 0.00 0.99 0.99 80 1012.1
20260506213400 15 111 9.7 14.5 0.00 0.99 0.99 79 1011.9
20260506212857 15 212 14.5 17.7 0.00 0.99 0.99 80 1012.1
20260506212353 15 208 12.9 16.1 0.00 0.99 0.99 80 1011.7
20260506211848 15 163 8.0 11.3 0.00 0.99 0.99 80 1011.9
20260506211344 15 197 8.0 9.7 0.00 0.99 0.99 81 1011.8
20260506210842 15 130 9.7 12.9 0.00 0.99 0.99 81 1011.9
20260506210338 15 121 14.5 17.7 0.00 0.99 0.99 82 1011.7
20260506205836 15 135 8.0 11.3 0.00 0.99 0.99 82 1011.7
20260506205331 15 188 8.0 17.7 0.00 0.99 0.99 82 1011.7
20260506204828 15 189 11.3 16.1 0.00 0.99 0.99 83 1011.8
20260506204326 15 185 9.7 22.5 0.00 0.99 0.99 82 1011.5
20260506203823 15 127 11.3 17.7 0.00 0.99 0.99 82 1011.6
20260506203320 15 170 12.9 22.5 0.00 0.99 0.99 83 1011.7
20260506202817 15 197 17.7 22.5 0.00 0.99 0.99 82 1011.7
20260506202314 15 193 17.7 20.9 0.00 0.99 0.99 82 1011.6
20260506201810 15 76 6.4 6.4 0.00 0.99 0.99 83 1011.7
20260506201308 15 151 11.3 17.7 0.00 0.99 0.99 82 1011.5
20260506200805 15 135 14.5 25.7 0.00 0.99 0.99 82 1011.4
20260506200301 15 175 8.0 12.9 0.00 0.99 0.99 82 1011.3
20260506195757 15 160 14.5 25.7 0.00 0.99 0.99 82 1011.6
20260506195254 15 154 9.7 16.1 0.00 0.99 0.99 83 1011.4
20260506194751 15 181 14.5 17.7 0.00 0.99 0.99 83 1011.1
20260506194247 15 71 9.7 12.9 0.00 0.99 0.99 83 1011.3
20260506193746 15 187 9.7 12.9 0.00 0.99 0.99 84 1011.2
20260506193242 15 203 9.7 14.5 0.00 0.99 0.99 84 1011.1
20260506192738 15 171 12.9 22.5 0.00 0.99 0.99 84 1011.2
20260506192235 15 72 16.1 24.1 0.00 0.99 0.99 85 1011.2
20260506191732 15 153 12.9 16.1 0.00 0.99 0.99 85 1011.1
20260506191228 15 162 9.7 14.5 0.00 0.99 0.99 85 1011.3
20260506190726 15 211 8.0 11.3 0.00 0.99 0.99 86 1011.1
20260506190222 15 144 9.7 12.9 0.00 0.99 0.99 85 1010.9
20260506185719 16 199 11.3 17.7 0.00 0.99 0.99 86 1010.8
20260506185215 16 234 11.3 16.1 0.00 0.99 0.99 85 1010.8
20260506184713 16 170 17.7 27.4 0.00 0.99 0.99 85 1010.7
20260506184210 15 104 9.7 12.9 0.00 0.99 0.99 86 1010.6
20260506183707 15 206 9.7 12.9 0.00 0.99 0.99 87 1010.8
20260506183203 15 107 17.7 25.7 0.00 0.99 0.99 87 1010.9
20260506182700 15 109 11.3 16.1 0.00 0.99 0.99 87 1010.8
20260506182157 15 180 14.5 16.1 0.00 0.99 0.99 87 1010.6
20260506181655 15 175 11.3 27.4 0.00 0.99 0.99 87 1010.5
20260506181152 15 158 11.3 17.7 0.00 0.99 0.99 88 1010.5
20260506180649 15 210 14.5 14.5 0.00 0.99 0.99 88 1010.4
20260506180145 15 153 9.7 14.5 0.00 0.99 0.99 89 1010.5
20260506175642 16 134 6.4 14.5 0.00 0.99 0.99 89 1010.4
20260506175139 15 115 8.0 12.9 0.00 0.99 0.99 89 1010.4
20260506174637 15 175 12.9 22.5 0.00 0.99 0.99 89 1010.6
20260506174134 15 158 14.5 17.7 0.00 0.99 0.99 89 1010.3
20260506173631 16 105 11.3 17.7 0.00 0.99 0.99 89 1010.6
20260506173128 16 148 9.7 14.5 0.00 0.99 0.99 89 1010.5
20260506172625 16 127 12.9 16.1 0.00 0.99 0.99 90 1010.8
20260506172121 15 157 11.3 17.7 0.00 0.99 0.99 90 1010.9
20260506171619 15 146 8.0 11.3 0.00 0.99 0.99 91 1010.8
20260506171117 15 118 14.5 25.7 0.00 0.99 0.99 91 1010.8
20260506170615 15 255 9.7 12.9 0.00 0.99 0.99 91 1010.6
20260506170111 15 156 8.0 14.5 0.00 0.99 0.99 91 1010.6
20260506165609 15 232 12.9 17.7 0.00 0.99 0.99 92 1010.7
20260506165105 15 179 8.0 12.9 0.00 0.99 0.99 92 1010.8
20260506164603 15 154 8.0 9.7 0.00 0.99 0.99 92 1010.6
20260506164100 15 235 6.4 6.4 0.00 0.99 0.99 91 1010.9
20260506163555 15 151 3.2 4.8 0.00 0.99 0.99 91 1011.1
20260506163051 15 221 8.0 11.3 0.00 0.99 0.99 91 1010.9